Weather History for Springfield, VT

Change the Weather History Date:

Friday, May 23, 2014

  Actual Average Record
Temperature  
Mean Temperature 56 °F 57 °F  
Max Temperature 60 °F 69 °F 82 °F (2012)
Min Temperature 51 °F 45 °F 30 °F (2002)
Degree Days  
Heating Degree Days 9    
Cooling Degree Days 0 0  
Month to date cooling degree days 5 0  
Year to date cooling degree days 5 2  
Growing Degree Days 6 (Base 50)    
Moisture  
Dew Point 53 °F    
Average Humidity 89    
Maximum Humidity 100    
Minimum Humidity 78    
Precipitation  
Precipitation 0.33 in 0.14 in 0.33 in (2014)
Month to date precipitation 2.81 2.53  
Year to date precipitation 12.22 15.06  
Sea Level Pressure  
Sea Level Pressure 29.91 in    
Wind  
Wind Speed 3 mph (East)    
Max Wind Speed 10 mph    
Max Gust Speed 14 mph    
Visibility 8 miles    
Events Rain    
T = Trace of Precipitation, MM = Missing Value Source: NWS Daily Summary

Daily Weather History Graph

Daily Weather History Graph

Search for Another Location

Airport:

Trip Planner

Search our weather history database for the weather conditions in past years. The results will help you decide how hot, cold, wet, or windy it might be!

Date:

Astronomy

May. 23, 2014 Rise Set
Actual Time 5:18 AM EDT 8:15 PM EDT
Civil Twilight 4:44 AM EDT 8:49 PM EDT
Nautical Twilight 4:01 AM EDT 9:32 PM EDT
Astronomical Twilight 3:11 AM EDT 10:23 PM EDT
Moon 2:20 AM EDT (5/23) 2:56 PM EDT (5/23)
Length of Visible Light 16h 05m
Length of Day
14h 57m
Waning Crescent, 27% of the Moon is Illuminated
May 23
Waning Crescent
May 28
New
Jun 5
First Quarter
Jun 13
Full
Jun 19
Last Quarter

Hourly Weather History & Observations

Time (EDT) Temp. Dew Point Humidity Pressure Visibility Wind Dir Wind Speed Gust Speed Precip Events Conditions
12:28 AM 54.0 °F 53.1 °F 97% 29.87 in 6.0 mi Calm Calm - N/A   Overcast
12:40 AM 54.0 °F 53.1 °F 97% 29.86 in 8.0 mi Calm Calm - N/A   Overcast
12:54 AM 54.0 °F 53.1 °F 97% 29.87 in 6.0 mi Calm Calm - N/A   Overcast
1:04 AM 54.0 °F 53.1 °F 97% 29.86 in 7.0 mi Calm Calm - N/A   Overcast
1:39 AM 54.0 °F 53.1 °F 97% 29.86 in 8.0 mi Calm Calm - N/A   Overcast
1:54 AM 54.0 °F 53.1 °F 97% 29.87 in 8.0 mi Calm Calm - N/A   Overcast
2:24 AM 54.0 °F 54.0 °F 100% 29.86 in 6.0 mi Calm Calm - N/A   Overcast
2:54 AM 55.0 °F 54.0 °F 96% 29.86 in 9.0 mi Calm Calm - N/A   Overcast
3:03 AM 54.0 °F 53.1 °F 97% 29.86 in 6.0 mi Calm Calm - N/A   Overcast
3:21 AM 54.0 °F 54.0 °F 100% 29.86 in 4.0 mi Calm Calm - N/A   Overcast
3:54 AM 55.0 °F 54.0 °F 96% 29.86 in 8.0 mi Calm Calm - N/A   Overcast
4:04 AM 55.0 °F 54.0 °F 96% 29.86 in 8.0 mi Calm Calm - N/A   Overcast
4:54 AM 55.0 °F 54.0 °F 96% 29.86 in 10.0 mi Calm Calm - N/A   Overcast
5:32 AM 55.0 °F 54.0 °F 96% 29.87 in 10.0 mi Calm Calm - N/A   Overcast
5:54 AM 55.0 °F 54.0 °F 96% 29.88 in 10.0 mi Calm Calm - N/A   Overcast
6:54 AM 55.0 °F 54.0 °F 96% 29.88 in 6.0 mi Calm Calm - N/A   Overcast
7:54 AM 55.0 °F 54.0 °F 96% 29.90 in 4.0 mi SE 3.5 mph - 0.02 in Rain Light Rain
8:54 AM 55.9 °F 54.0 °F 93% 29.90 in 10.0 mi SE 4.6 mph - 0.00 in   Overcast
9:12 AM 57.0 °F 55.0 °F 93% 29.90 in 10.0 mi SE 4.6 mph - N/A   Overcast
9:54 AM 57.0 °F 54.0 °F 89% 29.91 in 10.0 mi SE 4.6 mph - N/A   Overcast
10:54 AM 57.0 °F 54.0 °F 89% 29.91 in 10.0 mi SSE 5.8 mph - N/A   Overcast
11:10 AM 57.9 °F 55.0 °F 90% 29.91 in 10.0 mi SE 5.8 mph - N/A   Overcast
11:54 AM 59.0 °F 55.0 °F 87% 29.91 in 10.0 mi SSE 6.9 mph - N/A   Overcast
12:54 PM 59.0 °F 54.0 °F 83% 29.91 in 10.0 mi South 5.8 mph - N/A   Overcast
1:25 PM 59.0 °F 54.0 °F 83% 29.90 in 10.0 mi East 6.9 mph - N/A   Overcast
1:32 PM 59.0 °F 54.0 °F 83% 29.90 in 10.0 mi SE 6.9 mph - N/A   Overcast
1:54 PM 60.1 °F 54.0 °F 80% 29.91 in 10.0 mi East 6.9 mph - N/A   Overcast
2:54 PM 57.9 °F 55.0 °F 90% 29.91 in 8.0 mi East 6.9 mph - 0.00 in   Overcast
3:44 PM 57.9 °F 53.1 °F 84% 29.90 in 10.0 mi ESE 8.1 mph - N/A   Overcast
3:54 PM 57.9 °F 54.0 °F 87% 29.91 in 10.0 mi ENE 8.1 mph - N/A   Overcast
4:35 PM 55.9 °F 53.1 °F 90% 29.91 in 9.0 mi NE 5.8 mph - 0.00 in   Overcast
4:54 PM 55.9 °F 54.0 °F 93% 29.92 in 2.5 mi Calm Calm - 0.04 in Rain Rain
5:15 PM 55.0 °F 53.1 °F 93% 29.92 in 2.5 mi NE 3.5 mph - 0.05 in Rain Rain
5:25 PM 55.0 °F 53.1 °F 93% 29.92 in 4.0 mi NE 3.5 mph - 0.06 in Rain Light Rain
5:33 PM 55.0 °F 53.1 °F 93% 29.92 in 1.8 mi NNE 3.5 mph - 0.08 in Rain Rain
5:40 PM 55.0 °F 54.0 °F 96% 29.92 in 3.0 mi NNE 3.5 mph - 0.09 in Rain Light Rain
5:54 PM 55.9 °F 54.0 °F 93% 29.93 in 7.0 mi Calm Calm - 0.09 in Rain Light Rain
6:36 PM 55.0 °F 53.1 °F 93% 29.94 in 9.0 mi NNE 4.6 mph - 0.03 in Rain Light Rain
6:54 PM 54.0 °F 52.0 °F 93% 29.95 in 9.0 mi Variable 4.6 mph - 0.04 in Rain Light Rain
7:54 PM 53.1 °F 52.0 °F 96% 29.96 in 6.0 mi NE 4.6 mph - 0.06 in Rain Light Rain
8:54 PM 53.1 °F 51.1 °F 93% 29.98 in 10.0 mi NE 3.5 mph - 0.02 in Rain Light Rain
9:54 PM 52.0 °F 51.1 °F 97% 29.99 in 10.0 mi Calm Calm - 0.03 in Rain Light Rain
10:45 PM 52.0 °F 50.0 °F 93% 29.99 in 10.0 mi Calm Calm - 0.00 in Rain Light Rain
10:54 PM 52.0 °F 50.0 °F 93% 30.00 in 10.0 mi NNE 3.5 mph - 0.00 in   Overcast
11:03 PM 52.0 °F 50.0 °F 93% 29.99 in 10.0 mi Calm Calm - N/A   Overcast
11:34 PM 52.0 °F 50.0 °F 93% 30.00 in 10.0 mi Calm Calm - N/A   Overcast
11:54 PM 52.0 °F 50.0 °F 93% 30.00 in 10.0 mi Calm Calm - 0.00 in   Overcast